Weather in Hondarribia

Spain     43˚22′11″N   1˚47′37″W
temp.,
°C
wind,
m/s
gust,
m/s
humid.,
%
clouds,
%
prec.,
mm/h
press.,
hPa
HPBL,
m
17 january, sun
sun1701:00+6˚s336735 0.0 103055
04:00+7˚ssw226992 0.0 102853
07:00+8˚sw227896 0.0 102856
10:00+8˚sw2387100 0.1 102883
13:00+8˚wsw1894100 1.5 1029412
16:00+7˚nw1299100 1.0 1028151
19:00+7˚n1299100 1.7 1029115
22:00+6˚n019897 0.1 103058
18 january, mon
mon1801:00+5˚se119592 0.1 103028
04:00+3˚ssw119537 0.0 102924
07:00+3˚sse119447 0.0 102925
10:00+6˚s119126 0.0 102952
13:00+11˚nnw117713 0.0 1028427
16:00+10˚n118068 0.0 1026378
19:00+6˚sse129336 0.0 102725
22:00+6˚s23900 0.0 102640
19 january, tue
tue1901:00+5˚s33900 0.0 102676
04:00+4˚s46860 0.0 1024138
07:00+4˚s57840 0.0 1023160
10:00+5˚s57770 0.0 1022218
13:00+10˚s57620 0.0 1020372
16:00+10˚sse48620 0.0 1016405
19:00+7˚s57738 0.0 1016177
22:00+7˚s51067100 0.0 1014439
20 january, wed
wed2001:00+7˚s6136791 0.0 1013623
04:00+6˚s5126882 0.0 1010671
07:00+7˚s5136791 0.0 1009765
10:00+7˚sse61470100 0.0 1007810
13:00+9˚s51469100 0.0 10041193
16:00+9˚s51570100 0.0 10011028
19:00+8˚s61673100 0.0 1001911
22:00+8˚s51481100 0.1 1002757
21 january, thu
thu2101:00+8˚s5167988 0.3 1003932
04:00+9˚s41382100 0.5 1005603
07:00+8˚s3887100 0.7 1007353
10:00+9˚s4148299 0.0 10081044
13:00+11˚s51374100 0.1 10081128
16:00+11˚s51373100 0.1 10041157
19:00+10˚s31783100 0.9 10031203
22:00+9˚s3491100 3.1 1003146